Home > Weather > Ulaanbaatar > Past weeks

Flag for Mongolia Past Weather in Ulaanbaatar, Mongolia — Yesterday and Last 2 Weeks

Now
68 °F

Passing clouds.


Feels Like: 68 °F
Forecast: 51 / 72 °F
Wind: 17 mph from North

Location: Ulan-Bator

Current Time: Jun 27, 2016 at 1:14:24 PM

Latest Report: Jun 27, 2016 at 1:00 PM


Visibility: N/A

Pressure: 29.71 "Hg (25.54 "Hg at 1298m altitude)

Humidity: 49%

Dew Point: 48 °F

Location of UlaanbaatarLocation

Past Weather in Ulaanbaatar — Graph

°F

Ulaanbaatar Temperature Yesterday

Maximum temperature yesterday: 72 °F (at 4:30 PM)
Minimum temperature yesterday: 55 °F (at 3:00 AM)
Average temperature yesterday: 65 °F

High & Low Weather Summary for the Past Weeks

 TemperatureHumidityPressure
High79 °F (Jun 18, 4:30 PM)94% (Jun 16, 7:00 AM)30.15 "Hg (Jun 16, 7:00 AM)
Low39 °F (Jun 17, 6:30 AM)18% (Jun 15, 7:00 PM)29.59 "Hg (Jun 16, 6:00 AM)
Average60 °F57%29.83 "Hg
* Reported Jun 12 12:00 PM — Jun 27 12:00 PM, Ulaanbaatar, Weather by CustomWeather, © 2016

Note: Actual official high and low records may vary slightly from our data, if they occured in-between our weather recording intervals... More about our weather records

Advertising

Ulaanbaatar Weather History for the Previous 24 Hours

Scroll right to see more
 ConditionsComfort  
Time TempWeatherWind HumidityBarometerVisibility
12:00 PM
Mon, Jun 27
68 °FPassing clouds.15 mph53%29.71 "HgN/A
11:30 AM66 °FPassing clouds.13 mph56%29.71 "HgN/A
11:00 AM63 °FPassing clouds.10 mph64%29.71 "HgN/A
10:30 AM61 °FScattered clouds.6 mph63%29.71 "HgN/A
10:00 AM59 °FScattered clouds.6 mph68%29.71 "HgN/A
9:30 AM59 °FScattered clouds.8 mph68%29.71 "HgN/A
9:00 AM57 °FSprinkles. Scattered clouds.10 mph72%29.71 "HgN/A
8:30 AM57 °FScattered clouds.3 mph72%29.71 "HgN/A
8:00 AM55 °FScattered clouds.No wind77%29.71 "HgN/A
7:30 AM55 °FPassing clouds.3 mph77%29.68 "HgN/A
7:00 AM55 °FPassing clouds.6 mph77%29.68 "HgN/A
6:30 AM55 °FPassing clouds.6 mph77%29.68 "HgN/A
6:00 AM55 °FPassing clouds.10 mph77%29.68 "HgN/A
5:30 AM55 °FPassing clouds.8 mph77%29.68 "HgN/A
5:00 AM54 °FPassing clouds.3 mph82%29.65 "HgN/A
4:00 AM54 °FPassing clouds.1 mph82%29.65 "HgN/A
3:00 AM55 °FPassing clouds.No wind77%29.65 "HgN/A
2:00 AM57 °FPassing clouds.3 mph72%29.65 "HgN/A
1:00 AM59 °FPassing clouds.3 mph68%29.68 "HgN/A
12:30 AM59 °FPassing clouds.6 mph68%29.68 "HgN/A
12:00 AM59 °FPassing clouds.8 mph68%29.68 "HgN/A
11:30 PM
Sun, Jun 26
61 °FScattered clouds.10 mph63%29.68 "HgN/A
11:00 PM61 °FScattered clouds.8 mph63%29.68 "HgN/A
10:30 PM61 °FPartly sunny.10 mph68%29.68 "HgN/A
10:00 PM63 °FScattered clouds.13 mph59%29.68 "HgN/A
9:30 PM64 °FScattered clouds.13 mph52%29.65 "HgN/A
9:00 PM66 °FScattered clouds.15 mph49%29.65 "HgN/A
8:30 PM68 °FScattered clouds.10 mph49%29.62 "HgN/A
8:00 PM70 °FScattered clouds.No wind40%29.62 "HgN/A
7:30 PM72 °FScattered clouds.1 mph33%29.62 "HgN/A
7:00 PM72 °FScattered clouds.1 mph38%29.62 "HgN/A
6:30 PM72 °FScattered clouds.1 mph36%29.62 "HgN/A
6:00 PM72 °FScattered clouds.6 mph33%29.65 "HgN/A
5:30 PM72 °FScattered clouds.3 mph36%29.65 "HgN/A
5:00 PM70 °FScattered clouds.3 mph35%29.65 "HgN/A
4:30 PM72 °FScattered clouds.8 mph33%29.65 "HgN/A
4:00 PM70 °FScattered clouds.6 mph35%29.68 "HgN/A
3:30 PM68 °FScattered clouds.6 mph38%29.68 "HgN/A
3:00 PM66 °FPartly sunny.10 mph46%29.68 "HgN/A
2:30 PM64 °FBroken clouds.8 mph49%29.71 "HgN/A
2:00 PM64 °FSprinkles. Scattered clouds.15 mph49%29.71 "HgN/A
1:30 PM66 °FScattered clouds.15 mph46%29.71 "HgN/A
1:00 PM66 °FSprinkles. Scattered clouds.13 mph43%29.71 "HgN/A
Weather by CustomWeather, © 2016

See weather overviewHow to use our weather pages